QPF
0.00 0.00 0.00 0.00 0.00 0.00 0.00 0.00 0.00 0.00 0.00 0.00 0.00 0.00 0.00 0.00 0.00 0.00 0.00 0.00 0.00 0.00 0.00 0.00 0.00 0.00 0.00 0.00 0.00 0.00 0.00 0.00 0.00 0.00 0.00 0.00 0.00 0.00 0.00 0.00 0.00 0.00 0.00 0.00 0.00
0.00 0.00 0.00 0.00 0.00 0.00 0.00 0.00 0.00 0.00 0.00 0.00 0.00 0.00 0.00 0.00 0.00 0.00 0.00 0.00 0.00 0.00 0.00 0.00 0.00 0.00 0.00 0.00 0.00 0.00 0.00 0.00 0.00 0.00 0.00 0.00 0.00 0.00 0.00 0.00 0.00 0.00 0.00 0.00 0.00
0.00 0.00 0.00 0.00 0.00 0.00 0.00 0.00 0.00 0.00 0.00 0.00 0.00 0.00 0.00 0.00 0.00 0.00 0.00 0.00 0.00 0.00 0.00 0.00 0.00 0.00 0.00 0.00 0.00 0.00 0.00 0.00 0.00 0.00 0.00 0.00 0.00 0.00 0.00 0.00 0.00 0.00 0.00 0.00 0.00
0.00 0.00 0.00 0.00 0.00 0.00 0.00 0.00 0.00 0.00 0.00 0.00 0.00 0.00 0.00 0.00 0.00 0.00 0.00 0.00 0.00 0.00 0.00 0.00 0.00 0.00 0.00 0.00 0.00 0.00 0.00 0.00 0.00 0.00 0.00 0.00 0.00 0.00 0.00 0.00 0.00 0.00 0.00 0.00 0.00
0.00 0.00 0.00 0.00 0.00 0.00 0.00 0.00 0.00 0.00 0.00 0.00 0.00 0.00 0.00 0.00 0.00 0.00 0.00 0.00 0.00 0.00 0.00 0.00 0.00 0.00 0.00 0.00 0.00 0.00 0.00 0.00 0.00 0.00 0.00 0.00 0.00 0.00 0.00 0.00 0.00 0.00 0.00 0.00 0.00
0.00 0.00 0.00 0.00 0.00 0.00 0.00 0.00 0.00 0.00 0.00 0.00 0.00 0.00 0.00 0.00 0.00 0.00 0.00 0.00 0.00 0.00 0.00 0.00 0.00 0.00 0.00 0.00 0.00 0.00 0.00 0.00 0.00 0.00 0.00 0.00 0.00 0.00 0.00 0.00 0.00 0.00 0.00 0.00 0.00
0.00 0.00 0.00 0.00 0.00 0.00 0.00 0.00 0.00 0.00 0.00 0.00 0.00 0.00 0.00 0.00 0.00 0.00 0.00 0.00 0.00 0.00 0.00 0.00 0.00 0.00 0.00 0.00 0.00 0.00 0.00 0.00 0.00 0.00 0.00 0.00 0.00 0.00 0.00 0.00 0.00 0.00 0.00 0.00 0.00
0.00 0.00 0.00 0.00 0.00 0.00 0.00 0.00 0.00 0.00 0.00 0.00 0.00 0.00 0.00 0.00 0.00 0.00 0.00 0.00 0.00 0.00 0.00 0.00 0.00 0.00 0.00 0.00 0.00 0.00 0.00 0.00 0.00 0.00 0.00 0.00 0.00 0.00 0.00 0.00 0.00 0.00 0.00 0.00 0.00
0.00 0.00 0.00 0.00 0.00 0.00 0.00 0.00 0.00 0.00 0.00 0.00 0.00 0.00 0.00 0.00 0.00 0.00 0.00 0.00 0.00 0.00 0.00 0.00 0.00 0.00 0.00 0.00 0.00 0.00 0.00 0.00 0.00 0.00 0.00 0.00 0.00 0.00 0.00 0.00 0.00 0.00 0.00 0.00 0.00
0.00 0.00 0.00 0.00 0.00 0.00 0.00 0.00 0.00 0.00 0.00 0.00 0.00 0.00 0.00 0.00 0.00 0.00 0.00 0.00 0.00 0.00 0.00 0.00 0.00 0.00 0.00 0.00 0.00 0.00 0.00 0.00 0.00 0.00 0.00 0.00 0.00 0.00 0.00 0.00 0.00 0.00 0.00 0.00 0.00
0.00 0.00 0.00 0.00 0.00 0.00 0.00 0.00 0.00 0.00 0.00 0.00 0.00 0.00 0.00 0.00 0.00 0.00 0.00 0.00 0.00 0.00 0.00 0.00 0.00 0.00 0.00 0.00 0.00 0.00 0.00 0.00 0.00 0.00 0.00 0.00 0.00 0.00 0.00 0.00 0.00 0.00 0.00 0.00 0.00
0.00 0.00 0.00 0.00 0.00 0.00 0.00 0.00 0.00 0.00 0.00 0.00 0.00 0.00 0.00 0.00 0.00 0.00 0.00 0.00 0.00 0.00 0.00 0.00 0.00 0.00 0.00 0.00 0.00 0.00 0.00 0.00 0.00 0.00 0.00 0.00 0.00 0.00 0.00 0.00 0.00 0.00 0.00 0.00 0.00
0.00 0.00 0.00 0.00 0.00 0.00 0.00 0.00 0.00 0.00 0.00 0.00 0.00 0.00 0.00 0.00 0.00 0.00 0.00 0.00 0.00 0.00 0.00 0.00 0.00 0.00 0.00 0.00 0.00 0.00 0.00 0.00 0.00 0.00 0.00 0.00 0.00 0.00 0.00 0.00 0.00 0.00 0.00 0.00 0.00
0.00 0.00 0.00 0.00 0.00 0.00 0.00 0.00 0.00 0.00 0.00 0.00 0.00 0.00 0.00 0.00 0.00 0.00 0.00 0.00 0.00 0.00 0.00 0.00 0.00 0.00 0.00 0.00 0.00 0.00 0.00 0.00 0.00 0.00 0.00 0.00 0.00 0.00 0.00 0.00 0.00 0.00 0.00 0.00 0.00
0.00 0.00 0.00 0.00 0.00 0.00 0.00 0.00 0.00 0.00 0.00 0.00 0.00 0.00 0.00 0.00 0.00 0.00 0.00 0.00 0.00 0.00 0.00 0.00 0.00 0.00 0.00 0.00 0.00 0.00 0.00 0.00 0.00 0.00 0.00 0.00 0.00 0.00 0.00 0.00 0.00 0.00 0.00 0.00 0.00
0.00 0.00 0.00 0.00 0.00 0.00 0.00 0.00 0.00 0.00 0.00 0.00 0.00 0.00 0.00 0.00 0.00 0.00 0.00 0.00 0.00 0.00 0.00 0.00 0.00 0.00 0.00 0.00 0.00 0.00 0.00 0.00 0.00 0.00 0.00 0.00 0.00 0.00 0.00 0.00 0.00 0.00 0.00 0.00 0.00
0.00 0.00 0.00 0.00 0.00 0.00 0.00 0.00 0.00 0.00 0.00 0.00 0.00 0.00 0.00 0.00 0.00 0.00 0.00 0.00 0.00 0.00 0.00 0.00 0.00 0.00 0.00 0.00 0.00 0.00 0.00 0.00 0.00 0.00 0.00 0.00 0.00 0.00 0.00 0.00 0.00 0.00 0.00 0.00 0.00
0.00 0.00 0.00 0.00 0.00 0.00 0.00 0.00 0.00 0.00 0.00 0.00 0.00 0.00 0.00 0.00 0.00 0.00 0.00 0.00 0.00 0.00 0.00 0.00 0.00 0.00 0.00 0.00 0.00 0.00 0.00 0.00 0.00 0.00 0.00 0.00 0.00 0.00 0.00 0.00 0.00 0.00 0.00 0.00 0.00
0.00 0.00 0.00 0.00 0.00 0.00 0.02 0.00 0.00 0.00 0.00 0.00 0.00 0.00 0.00 0.00 0.00 0.00 0.00 0.00 0.00 0.00 0.00 0.00 0.00 0.00 0.00 0.00 0.00 0.00 0.00 0.00 0.00 0.00 0.00 0.00 0.00 0.00 0.00 0.00 0.00 0.00 0.00 0.00 0.00
0.00 0.00 0.00 0.00 0.00 0.01 0.01 0.00 0.00 0.00 0.00 0.00 0.00 0.00 0.00 0.00 0.00 0.00 0.00 0.00 0.00 0.00 0.00 0.00 0.00 0.00 0.00 0.00 0.00 0.00 0.00 0.00 0.00 0.00 0.00 0.00 0.00 0.00 0.00 0.00 0.00 0.00 0.00 0.00 0.00
0.00 0.00 0.00 0.00 0.00 0.00 0.00 0.00 0.00 0.00 0.00 0.00 0.00 0.00 0.00 0.00 0.00 0.00 0.00 0.00 0.00 0.00 0.00 0.00 0.00 0.00 0.00 0.00 0.00 0.00 0.00 0.00 0.00 0.00 0.00 0.00 0.00 0.00 0.00 0.00 0.00 0.00 0.00 0.00 0.00
0.00 0.00 0.00 0.01 0.00 0.00 0.00 0.00 0.00 0.00 0.00 0.00 0.00 0.00 0.00 0.00 0.00 0.00 0.00 0.00 0.00 0.00 0.00 0.00 0.00 0.00 0.00 0.00 0.00 0.00 0.00 0.00 0.00 0.00 0.00 0.01 0.00 0.00 0.00 0.00 0.00 0.00 0.00 0.00 0.00
0.00 0.00 0.00 0.01 0.00 0.00 0.00 0.00 0.00 0.00 0.00 0.00 0.00 0.00 0.00 0.00 0.00 0.00 0.00 0.00 0.00 0.00 0.00 0.00 0.00 0.00 0.00 0.00 0.00 0.00 0.00 0.00 0.00 0.00 0.00 0.01 0.00 0.00 0.00 0.00 0.00 0.00 0.00 0.00 0.00
0.00 0.00 0.01 0.02 0.00 0.00 0.00 0.00 0.00 0.00 0.00 0.00 0.00 0.00 0.00 0.00 0.00 0.00 0.00 0.00 0.00 0.00 0.00 0.00 0.00 0.00 0.00 0.00 0.00 0.00 0.00 0.00 0.00 0.00 0.00 0.00 0.00 0.00 0.00 0.00 0.00 0.00 0.00 0.00 0.00
0.00 0.00 0.00 0.00 0.00 0.00 0.00 0.00 0.00 0.00 0.00 0.00 0.00 0.00 0.00 0.00 0.00 0.00 0.00 0.00 0.00 0.00 0.00 0.00 0.00 0.00 0.00 0.00 0.00 0.00 0.00 0.00 0.00 0.00 0.00 0.00 0.00 0.00 0.00 0.00 0.00 0.00 0.00 0.00 0.00
0.00 0.00 0.00 0.00 0.00 0.00 0.00 0.00 0.00 0.00 0.00 0.00 0.00 0.00 0.00 0.00 0.00 0.00 0.00 0.00 0.00 0.00 0.00 0.00 0.00 0.00 0.00 0.00 0.00 0.00 0.00 0.00 0.00 0.00 0.00 0.00 0.00 0.00 0.00 0.00 0.00 0.00 0.00 0.00 0.00
0.00 0.00 0.00 0.00 0.00 0.00 0.00 0.00 0.00 0.00 0.00 0.00 0.00 0.00 0.00 0.00 0.00 0.00 0.00 0.00 0.00 0.00 0.00 0.00 0.00 0.00 0.00 0.00 0.00 0.00 0.00 0.00 0.00 0.00 0.00 0.00 0.00 0.00 0.00 0.00 0.00 0.00 0.00 0.00 0.00
MSLP
1019.85 1019.73 1019.65 1019.52 1019.45 1019.32 1019.18 1019.03 1018.90 1018.73 1018.51 1018.25 1018.03 1017.86 1017.62 1017.29 1016.78 1016.73 1015.96 1014.67 1014.56 1014.71 1014.96 1015.03 1015.13 1015.10 1015.14 1015.49 1015.56 1015.89 1016.89 1016.82 1015.77 1015.09 1014.47 1013.81 1013.68 1013.44 1013.22 1013.33 1013.37 1013.20 1013.20 1013.04 1013.44
1019.85 1019.74 1019.61 1019.54 1019.43 1019.33 1019.16 1018.95 1018.80 1018.58 1018.38 1018.14 1017.91 1017.75 1017.60 1017.35 1016.92 1015.93 1014.77 1014.48 1014.49 1014.72 1015.11 1015.24 1015.25 1015.25 1015.51 1015.55 1015.79 1016.45 1017.19 1016.39 1015.47 1015.16 1014.82 1014.46 1014.42 1014.47 1014.12 1013.98 1013.80 1013.52 1012.99 1013.17 1013.57
1019.84 1019.78 1019.60 1019.49 1019.37 1019.19 1019.04 1018.84 1018.61 1018.44 1018.23 1018.02 1017.79 1017.55 1017.41 1017.23 1016.77 1015.19 1014.65 1014.59 1014.59 1014.74 1014.97 1015.00 1015.09 1015.31 1015.68 1015.64 1015.84 1016.15 1016.46 1015.88 1015.12 1014.93 1014.83 1014.67 1014.54 1014.54 1014.64 1014.47 1014.18 1013.80 1013.40 1013.25 1013.38
1019.80 1019.74 1019.62 1019.49 1019.29 1019.09 1018.87 1018.67 1018.44 1018.22 1017.98 1017.76 1017.58 1017.39 1017.25 1017.11 1016.49 1015.05 1014.78 1014.68 1014.71 1014.95 1015.11 1014.94 1015.13 1015.46 1015.72 1015.73 1015.51 1015.98 1015.70 1015.64 1015.37 1015.12 1015.15 1014.98 1014.78 1014.84 1014.95 1014.23 1013.87 1013.56 1013.35 1013.23 1013.36
1019.65 1019.60 1019.51 1019.40 1019.27 1019.02 1018.78 1018.55 1018.28 1018.04 1017.82 1017.61 1017.48 1017.39 1017.05 1016.92 1015.67 1015.00 1015.00 1015.01 1015.01 1015.12 1015.12 1015.07 1015.32 1015.52 1015.82 1015.67 1015.66 1015.67 1015.69 1015.61 1015.37 1015.19 1015.02 1015.04 1015.14 1015.17 1014.58 1013.67 1013.62 1013.33 1013.09 1013.14 1013.36
1019.45 1019.44 1019.38 1019.25 1019.16 1018.91 1018.65 1018.34 1018.08 1017.80 1017.59 1017.42 1017.27 1017.40 1017.28 1016.39 1014.71 1014.87 1015.00 1015.25 1015.20 1015.24 1015.13 1015.18 1015.22 1015.28 1015.57 1015.64 1015.84 1015.82 1015.81 1015.71 1015.37 1014.90 1014.93 1014.98 1014.78 1014.92 1013.88 1013.56 1013.56 1013.28 1013.31 1013.45 1013.66
1019.27 1019.19 1019.25 1019.09 1018.96 1018.70 1018.43 1018.17 1017.86 1017.57 1017.37 1017.19 1017.15 1017.12 1016.81 1015.46 1014.67 1014.77 1014.97 1015.15 1015.11 1015.17 1015.24 1015.17 1015.12 1015.36 1015.80 1015.82 1015.80 1015.94 1016.09 1015.91 1014.77 1014.62 1014.70 1014.46 1015.04 1014.60 1013.69 1013.71 1013.50 1013.25 1013.49 1013.63 1014.76
1019.06 1019.02 1018.97 1018.94 1018.72 1018.51 1018.25 1017.97 1017.68 1017.42 1017.24 1017.08 1017.17 1017.17 1016.00 1014.89 1014.88 1014.92 1015.04 1015.15 1015.17 1015.19 1015.36 1015.42 1015.26 1015.63 1015.89 1016.09 1016.24 1016.39 1016.57 1016.36 1014.76 1014.67 1014.58 1014.63 1014.87 1014.25 1013.65 1013.79 1013.50 1013.17 1013.97 1014.60 1015.78
1018.64 1018.80 1018.82 1018.63 1018.48 1018.17 1017.91 1017.63 1017.47 1017.28 1017.21 1017.26 1017.42 1017.01 1015.88 1015.08 1015.03 1015.10 1015.15 1015.35 1015.48 1015.64 1015.65 1015.59 1015.68 1016.28 1016.46 1017.00 1017.40 1017.01 1016.88 1016.45 1015.60 1014.78 1014.98 1015.23 1015.26 1014.48 1013.69 1013.90 1013.56 1013.80 1014.82 1015.88 1016.80
1018.28 1018.35 1018.52 1018.38 1018.16 1017.93 1017.58 1017.13 1017.18 1017.33 1017.25 1017.17 1016.88 1017.00 1015.78 1015.24 1015.24 1015.23 1015.22 1015.34 1015.64 1015.97 1016.20 1016.32 1016.69 1017.11 1017.46 1017.76 1017.93 1017.39 1017.19 1016.58 1016.05 1015.31 1015.10 1015.41 1015.10 1014.96 1014.35 1013.76 1013.53 1014.53 1015.86 1016.88 1017.58
1018.03 1018.08 1018.02 1018.07 1017.90 1017.70 1017.60 1017.40 1017.69 1017.56 1017.06 1016.11 1015.86 1015.54 1015.12 1015.49 1015.38 1015.50 1015.37 1015.54 1015.86 1016.38 1016.80 1016.93 1017.55 1017.59 1017.05 1017.07 1016.84 1016.98 1017.14 1016.99 1016.39 1015.62 1015.43 1015.35 1015.45 1014.82 1014.19 1013.86 1014.30 1015.47 1016.56 1017.82 1018.53
1017.70 1017.73 1017.79 1017.83 1017.77 1017.51 1017.58 1017.48 1017.28 1017.41 1016.72 1015.32 1015.00 1015.05 1014.92 1014.99 1015.57 1015.77 1015.74 1016.03 1016.22 1016.62 1016.90 1017.42 1017.32 1016.47 1016.52 1016.83 1017.03 1017.08 1016.92 1016.74 1016.39 1015.77 1015.82 1015.51 1015.59 1014.81 1013.90 1014.63 1014.97 1015.96 1017.37 1018.55 1019.12
1017.22 1017.41 1017.42 1017.69 1017.59 1017.41 1017.19 1017.18 1017.06 1017.22 1017.33 1015.41 1014.88 1014.78 1015.15 1015.19 1015.38 1015.73 1015.96 1015.97 1016.20 1016.65 1016.82 1016.78 1016.15 1015.85 1016.21 1016.41 1016.45 1016.58 1016.81 1016.83 1016.86 1016.47 1016.18 1016.23 1016.01 1015.35 1014.47 1015.68 1016.67 1017.62 1018.47 1019.08 1019.64
1016.73 1016.95 1017.20 1017.50 1017.91 1016.93 1017.12 1017.26 1017.17 1017.38 1017.30 1015.72 1015.20 1015.01 1015.15 1015.24 1015.87 1015.92 1015.93 1016.03 1016.05 1016.16 1016.59 1016.61 1015.86 1016.00 1016.12 1016.36 1016.64 1016.76 1016.34 1016.62 1016.93 1017.28 1017.42 1016.97 1016.50 1015.97 1015.39 1016.89 1017.79 1018.85 1019.47 1020.00 1020.38
1016.17 1016.49 1016.90 1017.19 1017.20 1017.01 1016.95 1017.10 1017.41 1017.63 1017.18 1015.41 1015.21 1015.13 1015.04 1015.53 1016.03 1016.20 1016.20 1016.18 1016.23 1016.12 1016.27 1015.87 1015.78 1015.89 1015.92 1015.79 1016.06 1016.57 1016.68 1017.13 1017.42 1017.99 1018.29 1017.92 1018.20 1015.95 1016.03 1017.57 1018.62 1019.53 1020.23 1020.70 1021.26
1015.50 1015.90 1016.41 1017.01 1017.10 1016.73 1016.84 1017.23 1017.90 1017.95 1016.06 1015.12 1015.20 1015.17 1015.36 1015.43 1015.88 1016.28 1016.39 1016.42 1016.33 1016.39 1016.21 1016.12 1015.71 1015.61 1015.58 1015.51 1015.91 1016.51 1017.11 1017.71 1018.24 1019.10 1019.46 1018.46 1018.33 1016.77 1016.27 1016.93 1018.72 1020.01 1020.84 1021.49 1021.76
1014.70 1015.32 1015.84 1015.78 1016.12 1016.19 1016.82 1017.66 1018.16 1016.79 1014.66 1014.94 1014.93 1015.00 1015.19 1015.50 1015.91 1016.12 1016.44 1016.57 1016.46 1016.62 1016.58 1016.08 1015.77 1015.61 1015.61 1016.03 1016.50 1016.98 1018.27 1019.05 1019.84 1020.44 1019.63 1018.80 1018.36 1016.93 1016.48 1016.72 1018.34 1020.51 1021.65 1022.33 1022.55
1014.14 1014.75 1015.32 1015.52 1015.76 1016.02 1017.02 1017.86 1016.70 1015.35 1014.45 1014.15 1014.26 1014.62 1014.92 1014.92 1015.40 1015.77 1016.15 1016.27 1015.97 1016.09 1016.47 1016.49 1016.13 1015.81 1015.82 1015.96 1016.60 1017.42 1018.12 1019.52 1020.63 1021.17 1020.36 1019.63 1019.17 1018.25 1018.29 1018.41 1019.55 1020.77 1021.75 1022.41 1023.03
1014.14 1014.87 1015.12 1015.66 1015.67 1016.14 1017.08 1016.53 1014.83 1014.37 1013.84 1013.88 1014.45 1014.78 1014.79 1014.67 1014.89 1015.48 1015.82 1015.73 1015.61 1015.49 1016.30 1016.46 1016.26 1015.86 1015.64 1015.65 1016.21 1017.21 1017.81 1018.61 1020.32 1021.87 1021.55 1019.78 1018.77 1019.08 1019.44 1020.23 1020.86 1021.58 1021.92 1022.38 1023.02
1013.96 1015.10 1015.41 1015.62 1015.52 1016.09 1016.55 1015.53 1014.42 1013.54 1013.40 1013.48 1014.32 1014.38 1014.61 1014.64 1015.12 1015.50 1015.51 1015.39 1015.76 1015.79 1015.79 1016.61 1017.25 1016.95 1016.92 1016.68 1016.80 1017.17 1017.79 1018.83 1020.30 1021.91 1021.79 1020.20 1019.43 1019.04 1020.09 1020.92 1021.68 1022.19 1022.55 1022.82 1022.88
1014.11 1015.59 1016.00 1015.71 1015.77 1016.40 1016.46 1015.64 1014.61 1013.62 1013.41 1013.87 1014.06 1014.28 1014.36 1014.49 1014.90 1015.45 1015.42 1015.53 1015.64 1016.27 1016.30 1017.01 1017.66 1017.84 1017.72 1017.63 1017.51 1018.12 1018.39 1019.12 1020.11 1021.03 1021.20 1020.91 1019.63 1018.77 1019.51 1020.60 1021.70 1022.06 1022.19 1022.27 1022.67
1014.32 1015.53 1015.80 1015.82 1016.30 1016.25 1016.01 1015.28 1014.52 1013.98 1013.82 1013.96 1014.24 1014.69 1014.85 1014.89 1015.08 1015.68 1015.78 1015.57 1015.72 1016.12 1017.08 1017.59 1018.52 1018.94 1018.55 1017.98 1018.18 1018.25 1018.63 1019.48 1020.47 1021.20 1021.21 1020.88 1019.71 1019.23 1019.62 1020.49 1021.05 1021.56 1021.81 1022.04 1022.49
1014.57 1015.61 1015.75 1015.52 1015.75 1015.76 1015.38 1015.10 1014.55 1014.39 1014.10 1014.55 1014.65 1014.47 1014.86 1015.31 1015.75 1015.44 1015.79 1016.27 1016.08 1016.64 1017.22 1018.04 1019.19 1020.09 1019.72 1019.82 1019.01 1019.41 1019.58 1020.09 1020.83 1021.96 1021.69 1021.58 1020.12 1020.17 1020.44 1020.86 1020.95 1021.18 1021.43 1021.99 1022.69
1014.29 1015.68 1016.03 1015.54 1015.32 1015.22 1015.23 1015.10 1014.59 1014.17 1014.13 1014.25 1014.67 1014.95 1015.02 1015.43 1015.44 1015.84 1016.29 1016.85 1016.90 1017.18 1017.75 1018.29 1019.70 1020.32 1020.43 1020.87 1020.99 1020.80 1020.65 1021.33 1021.75 1022.52 1022.27 1021.20 1020.60 1019.89 1020.22 1020.77 1020.89 1021.19 1021.49 1022.06 1022.50
1014.02 1014.54 1014.35 1014.85 1014.65 1015.04 1015.07 1014.87 1014.57 1014.58 1014.53 1014.59 1014.90 1014.95 1015.39 1015.84 1016.16 1016.54 1017.09 1017.68 1018.08 1018.13 1018.49 1019.20 1020.82 1021.37 1021.26 1021.61 1022.00 1021.83 1021.56 1021.26 1021.99 1022.24 1022.64 1020.78 1020.85 1019.91 1020.15 1020.53 1020.63 1021.03 1021.30 1021.77 1022.27
1014.74 1014.69 1014.63 1014.40 1014.18 1014.87 1015.07 1014.60 1014.53 1014.72 1014.74 1014.84 1015.17 1015.57 1016.08 1016.48 1016.59 1017.49 1017.77 1018.22 1018.60 1019.40 1019.57 1020.19 1021.76 1022.84 1023.16 1022.95 1022.98 1022.85 1021.55 1021.81 1021.77 1021.94 1021.75 1021.43 1020.93 1020.46 1020.65 1020.75 1021.03 1021.27 1021.47 1021.82 1022.16
1015.13 1014.66 1014.22 1014.12 1014.15 1014.56 1014.20 1013.93 1014.11 1014.72 1015.05 1014.72 1015.18 1016.32 1016.99 1017.69 1017.99 1018.68 1019.18 1019.48 1019.83 1020.13 1020.78 1021.67 1022.92 1024.85 1025.37 1024.69 1024.43 1023.92 1021.22 1021.08 1021.01 1020.93 1021.26 1021.63 1021.47 1021.55 1021.26 1021.21 1021.36 1021.50 1021.51 1021.69 1021.82
Thickness
5695 5697 5699 5701 5703 5705 5706 5708 5710 5712 5714 5717 5720 5722 5724 5728 5732 5733 5734 5747 5749 5749 5746 5744 5742 5740 5739 5730 5732 5726 5688 5682 5702 5704 5711 5725 5723 5732 5737 5730 5731 5736 5734 5738 5738
5691 5693 5695 5697 5699 5701 5703 5705 5707 5709 5712 5715 5717 5719 5721 5724 5728 5732 5744 5746 5746 5744 5738 5732 5728 5730 5718 5723 5718 5702 5679 5694 5712 5712 5708 5711 5711 5713 5718 5716 5715 5722 5732 5736 5733
5686 5688 5691 5693 5695 5698 5700 5702 5705 5707 5709 5712 5714 5717 5719 5721 5724 5734 5741 5741 5741 5739 5737 5734 5731 5724 5712 5717 5711 5707 5687 5705 5712 5714 5715 5712 5708 5712 5707 5706 5711 5714 5724 5726 5727
5680 5682 5685 5687 5690 5693 5696 5698 5701 5704 5706 5709 5712 5714 5716 5718 5704 5731 5735 5735 5735 5732 5729 5726 5720 5710 5703 5701 5711 5699 5706 5709 5707 5710 5707 5705 5712 5701 5704 5708 5720 5722 5723 5725 5721
5675 5677 5679 5682 5684 5687 5691 5693 5697 5700 5702 5705 5707 5709 5713 5709 5712 5726 5727 5727 5726 5724 5718 5715 5706 5704 5694 5700 5700 5699 5702 5705 5704 5702 5701 5704 5698 5698 5701 5716 5717 5720 5722 5718 5716
5669 5671 5673 5676 5677 5681 5684 5688 5691 5695 5698 5700 5702 5702 5704 5694 5723 5720 5719 5718 5717 5714 5712 5710 5706 5705 5697 5698 5691 5695 5694 5692 5697 5700 5697 5695 5697 5701 5706 5713 5714 5715 5712 5711 5709
5662 5665 5666 5669 5671 5674 5678 5681 5685 5689 5691 5694 5695 5697 5697 5700 5716 5715 5712 5711 5711 5709 5703 5706 5705 5698 5691 5686 5694 5689 5680 5682 5691 5692 5690 5693 5689 5689 5704 5707 5709 5712 5706 5706 5689
5656 5658 5660 5662 5665 5668 5671 5675 5679 5682 5684 5686 5686 5688 5689 5708 5708 5707 5706 5702 5703 5704 5699 5698 5699 5690 5685 5686 5677 5673 5667 5658 5687 5691 5688 5688 5665 5695 5700 5696 5703 5707 5698 5690 5677
5651 5652 5654 5656 5659 5663 5666 5670 5672 5675 5677 5677 5677 5680 5680 5699 5695 5697 5696 5690 5690 5690 5689 5690 5686 5674 5674 5655 5644 5655 5642 5650 5662 5682 5674 5670 5655 5678 5697 5689 5693 5693 5684 5672 5667
5644 5646 5647 5649 5653 5657 5661 5666 5666 5666 5668 5669 5672 5666 5679 5683 5685 5687 5688 5686 5679 5676 5671 5668 5657 5649 5645 5634 5623 5636 5637 5646 5646 5668 5666 5654 5651 5658 5669 5681 5688 5678 5663 5660 5655
5637 5639 5640 5642 5645 5649 5653 5656 5656 5656 5661 5667 5668 5668 5675 5674 5678 5675 5678 5675 5670 5664 5648 5652 5634 5632 5640 5641 5646 5647 5638 5632 5640 5654 5648 5649 5645 5657 5667 5669 5669 5661 5655 5644 5638
5630 5632 5632 5633 5636 5640 5642 5646 5648 5647 5646 5667 5667 5665 5668 5669 5659 5662 5668 5657 5654 5644 5645 5634 5626 5646 5646 5642 5639 5635 5630 5626 5632 5644 5643 5640 5637 5652 5667 5659 5661 5649 5636 5630 5627
5623 5624 5624 5624 5628 5631 5635 5636 5638 5638 5628 5653 5658 5656 5650 5656 5651 5649 5652 5649 5643 5635 5633 5623 5638 5647 5641 5637 5633 5632 5625 5621 5617 5628 5632 5623 5620 5637 5653 5636 5632 5626 5620 5614 5609
5616 5616 5614 5614 5614 5625 5624 5624 5626 5625 5610 5629 5637 5641 5642 5643 5634 5640 5641 5639 5636 5628 5625 5621 5638 5632 5626 5621 5620 5613 5626 5624 5622 5609 5594 5616 5589 5624 5631 5611 5606 5600 5593 5590 5587
5607 5606 5605 5603 5607 5612 5615 5612 5612 5610 5583 5624 5620 5629 5631 5628 5625 5625 5629 5627 5620 5624 5624 5622 5622 5622 5621 5622 5619 5608 5614 5612 5610 5597 5592 5596 5577 5601 5610 5597 5592 5580 5575 5570 5566
5601 5599 5597 5594 5597 5603 5603 5600 5595 5589 5580 5610 5610 5612 5612 5616 5614 5611 5613 5616 5617 5613 5615 5610 5619 5620 5615 5620 5617 5609 5604 5597 5590 5578 5562 5586 5582 5595 5605 5599 5584 5572 5564 5557 5551
5596 5593 5591 5593 5594 5595 5591 5585 5577 5575 5612 5599 5602 5605 5605 5600 5598 5599 5595 5593 5593 5591 5590 5603 5605 5608 5609 5601 5598 5596 5577 5559 5553 5541 5559 5581 5578 5595 5605 5598 5582 5556 5544 5537 5532
5590 5587 5584 5585 5585 5585 5578 5570 5569 5584 5593 5606 5604 5600 5595 5599 5596 5592 5590 5586 5591 5595 5582 5581 5585 5592 5597 5594 5583 5574 5576 5548 5528 5542 5550 5570 5559 5580 5565 5561 5550 5541 5530 5524 5518
5580 5576 5577 5574 5575 5573 5567 5567 5578 5586 5596 5593 5591 5584 5583 5592 5592 5585 5580 5582 5585 5592 5576 5570 5577 5589 5591 5592 5585 5573 5562 5567 5543 5485 5504 5549 5568 5556 5547 5536 5531 5523 5517 5512 5507
5569 5562 5562 5562 5564 5561 5557 5564 5574 5589 5591 5589 5577 5577 5570 5576 5573 5569 5574 5580 5575 5580 5581 5569 5556 5567 5564 5568 5566 5562 5561 5539 5519 5489 5478 5536 5547 5549 5531 5520 5510 5501 5496 5494 5491
5555 5547 5543 5546 5547 5542 5539 5554 5566 5575 5577 5570 5568 5567 5568 5569 5567 5560 5564 5567 5568 5560 5564 5556 5547 5547 5552 5546 5543 5539 5537 5535 5526 5512 5491 5484 5528 5542 5530 5509 5491 5487 5486 5482 5478
5537 5533 5531 5530 5527 5530 5534 5548 5559 5559 5561 5558 5555 5551 5553 5555 5554 5546 5546 5551 5550 5548 5539 5540 5528 5500 5532 5536 5532 5531 5531 5523 5493 5497 5481 5498 5517 5523 5505 5489 5483 5478 5475 5469 5462
5521 5515 5517 5519 5516 5522 5532 5539 5543 5543 5546 5541 5541 5546 5543 5537 5531 5541 5542 5532 5536 5534 5527 5525 5496 5458 5495 5508 5517 5516 5517 5506 5494 5468 5476 5477 5483 5488 5481 5472 5469 5464 5458 5450 5439
5508 5500 5498 5506 5511 5517 5518 5518 5528 5532 5532 5534 5532 5529 5527 5526 5531 5527 5523 5516 5519 5511 5512 5513 5491 5475 5493 5484 5482 5472 5479 5474 5469 5437 5426 5446 5450 5485 5478 5454 5449 5444 5440 5428 5422
5494 5490 5501 5496 5503 5502 5505 5514 5519 5514 5516 5518 5516 5520 5517 5508 5512 5510 5512 5495 5494 5496 5491 5488 5456 5465 5478 5469 5458 5455 5456 5462 5439 5443 5421 5458 5448 5466 5463 5445 5442 5428 5424 5413 5405
5471 5474 5478 5487 5495 5487 5485 5496 5501 5501 5499 5501 5501 5506 5497 5495 5495 5478 5483 5480 5477 5468 5471 5466 5426 5431 5414 5443 5437 5424 5448 5438 5435 5431 5426 5429 5425 5443 5424 5420 5410 5405 5402 5395 5386
5449 5456 5468 5476 5475 5479 5489 5493 5489 5484 5483 5490 5492 5481 5475 5457 5456 5452 5448 5445 5444 5443 5439 5433 5409 5371 5371 5408 5389 5373 5435 5431 5429 5431 5421 5402 5406 5379 5396 5395 5387 5381 5380 5372 5366